Location: M.A.R.S.Observatory
(35.4031°N, 81.5481°W)
Time: 06:20:45
(UTC-04:00)

SL-8 R/B - Visible Passes

Search period start: 24 October 2014 00:00
Search period end: 02 November 2014 23:00
Orbit: 659 x 670 km, 48.4° (Epoch: 23 October)

Date Brightness Start Highest point End Pass type
(mag) Time Alt. Az. Time Alt. Az. Time Alt. Az.
24 Oct 6.2 04:40:45 18° E 04:40:45 18° E 04:42:04 10° ESE visible
24 Oct 4.4 06:18:49 30° WSW 06:19:56 34° SW 06:24:17 10° SSE visible
25 Oct 5.4 05:11:51 27° SE 05:11:51 27° SE 05:14:04 10° SE visible
25 Oct 5.6 06:49:55 12° WSW 06:51:14 13° SW 06:53:17 10° SSW visible
25 Oct 6.2 21:00:26 10° SSW 21:00:49 12° SSW 21:00:49 12° SSW visible
26 Oct 5.4 05:43:01 21° S 05:43:01 21° S 05:45:01 10° SSE visible
26 Oct 5.5 19:51:40 10° SSE 19:53:52 15° SE 19:53:52 15° SE visible
26 Oct 6.5 21:31:35 10° SW 21:31:56 12° SW 21:31:56 12° SW visible
27 Oct 4.4 20:21:11 10° SSW 20:24:54 37° SSE 20:24:54 37° SSE visible
28 Oct 5.4 19:12:09 10° SSE 19:15:07 17° SE 19:17:47 11° E visible
28 Oct 4.5 20:52:27 10° SW 20:55:51 47° WSW 20:55:51 47° WSW visible
29 Oct 4.1 19:41:57 10° SSW 19:46:28 44° SE 19:48:37 27° E visible
29 Oct 5.9 21:24:39 10° W 21:26:40 22° W 21:26:40 22° W visible
30 Oct 3.7 20:13:19 10° WSW 20:18:05 74° NW 20:19:20 48° NE visible
31 Oct 4.1 19:02:43 10° SSW 19:07:18 49° SE 19:11:54 10° ENE visible
31 Oct 4.9 20:45:36 10° W 20:49:57 35° NNW 20:49:57 35° NNW visible
01 Nov 3.9 19:34:11 10° WSW 19:38:56 68° NW 19:42:27 18° NE visible
01 Nov 6.1 21:18:28 10° WNW 21:20:29 18° NW 21:20:29 18° NW visible
02 Nov 5.0 19:06:33 10° W 19:10:52 33° NNW 19:12:54 24° NNE visible
